EZS07D DTTJ-LSGG

Flight info

Callsign EZS07D
Flight time 3h 2m
Altitude 24000
Route KBIRA1A KBIRA V334 NEDOS/N0457F340 UV334 MAGIM/N0454F360 UV334 TBK UM858 DOPEL DCT DEC DCT SUKUN DCT RUGOX DCT MADKA DCT AJO DCT OMEDA DCT MERLU DCT PIGOS/N0458F300 DCT BARSO/N0445F280 DCT IRMAR DCT KINES
Aircraft A320/M-SDE3FGHIRWY/LB1

Departure

Time 2026-04-24 16:47
Airport Djerba Zarzis International Airport (DTTJ)

Arrival

Time 2026-04-24 19:49
Airport Geneva International Airport (LSGG)
Time Latitude Longitude Altitude Speed Heading
2026-04-24 16:09 33.87327 10.77773 27 ft 0 kts 178°
2026-04-24 16:41 33.87334 10.77772 27 ft 4 kts 180°
2026-04-24 16:41 33.87360 10.77775 27 ft 4 kts 194°
2026-04-24 16:41 33.87383 10.77787 26 ft 4 kts 234°
2026-04-24 16:41 33.87389 10.77802 26 ft 0 kts 268°
2026-04-24 16:44 33.87388 10.77774 26 ft 10 kts 269°
2026-04-24 16:44 33.87387 10.77689 30 ft 10 kts 264°
2026-04-24 16:44 33.87385 10.77609 29 ft 11 kts 269°
2026-04-24 16:44 33.87383 10.77487 26 ft 15 kts 266°
2026-04-24 16:45 33.87377 10.77371 27 ft 13 kts 266°
2026-04-24 16:45 33.87367 10.77270 27 ft 11 kts 265°
2026-04-24 16:45 33.87364 10.77170 27 ft 18 kts 269°
2026-04-24 16:45 33.87360 10.76998 27 ft 20 kts 268°
2026-04-24 16:46 33.87357 10.76834 24 ft 20 kts 270°
2026-04-24 16:46 33.87435 10.76740 21 ft 17 kts 355°
2026-04-24 16:46 33.87520 10.76799 19 ft 16 kts 88°
2026-04-24 16:46 33.87526 10.76959 18 ft 32 kts 88°
2026-04-24 16:47 33.87540 10.77508 22 ft 96 kts 88°
2026-04-24 16:47 33.87566 10.78532 20 ft 147 kts 88°
2026-04-24 16:47 33.87657 10.79804 529 ft 151 kts 72°
2026-04-24 16:47 33.88259 10.80840 1165 ft 156 kts 43°
2026-04-24 16:48 33.88863 10.81336 1504 ft 161 kts 28°
2026-04-24 16:48 33.90335 10.81765 2218 ft 170 kts
2026-04-24 16:48 33.91502 10.81421 2684 ft 185 kts 326°
2026-04-24 16:48 33.92370 10.80141 2932 ft 211 kts 303°
2026-04-24 16:49 33.93116 10.78510 3214 ft 232 kts 300°
2026-04-24 16:49 33.93877 10.76788 4000 ft 230 kts 302°
2026-04-24 16:49 33.94648 10.75131 4959 ft 224 kts 303°
2026-04-24 16:49 33.95443 10.73530 5773 ft 222 kts 304°
2026-04-24 16:50 33.96013 10.72510 6293 ft 221 kts 313°
2026-04-24 16:50 33.97667 10.71107 7234 ft 219 kts 334°
2026-04-24 16:50 33.99085 10.70268 7628 ft 238 kts 334°
2026-04-24 16:50 34.00649 10.69361 7981 ft 258 kts 335°
2026-04-24 16:51 34.02276 10.68424 8625 ft 266 kts 335°
2026-04-24 16:51 34.03955 10.67457 9413 ft 269 kts 335°
2026-04-24 16:51 34.05651 10.66479 10206 ft 271 kts 334°
2026-04-24 16:51 34.07401 10.65469 10540 ft 291 kts 334°
2026-04-24 16:52 34.09299 10.64375 10719 ft 314 kts 334°
2026-04-24 16:52 34.11338 10.63199 10910 ft 334 kts 334°
2026-04-24 16:52 34.13465 10.61971 11426 ft 341 kts 334°
2026-04-24 16:52 34.15621 10.60721 12049 ft 346 kts 334°
2026-04-24 16:53 34.17797 10.59455 12686 ft 350 kts 334°
2026-04-24 16:53 34.20005 10.58170 13322 ft 354 kts 334°
2026-04-24 16:53 34.22244 10.56869 13929 ft 358 kts 334°
2026-04-24 16:53 34.24506 10.55557 14507 ft 361 kts 334°
2026-04-24 16:54 34.26771 10.54238 15099 ft 363 kts 334°
2026-04-24 16:54 34.29056 10.52896 15670 ft 366 kts 333°
2026-04-24 16:54 34.31351 10.51538 16201 ft 370 kts 333°
2026-04-24 16:54 34.33668 10.50161 16761 ft 372 kts 333°
2026-04-24 16:55 34.35998 10.48773 17321 ft 374 kts 333°
2026-04-24 16:55 34.38344 10.47380 17868 ft 377 kts 333°
2026-04-24 16:55 34.40709 10.45980 18416 ft 379 kts 333°
2026-04-24 16:55 34.43083 10.44576 18893 ft 381 kts 333°
2026-04-24 16:56 34.45465 10.43164 19391 ft 382 kts 333°
2026-04-24 16:56 34.47852 10.41745 19887 ft 383 kts 333°
2026-04-24 16:56 34.50246 10.40322 20369 ft 384 kts 333°
2026-04-24 16:56 34.52621 10.38913 20847 ft 385 kts 333°
2026-04-24 16:57 34.55056 10.37466 21323 ft 386 kts 333°
2026-04-24 16:57 34.57447 10.36041 21749 ft 388 kts 333°
2026-04-24 16:57 34.59908 10.34572 22213 ft 390 kts 333°
2026-04-24 16:57 34.62344 10.33118 22675 ft 391 kts 333°
2026-04-24 16:58 34.64782 10.31665 23132 ft 392 kts 332°
2026-04-24 16:58 34.67204 10.30220 23573 ft 393 kts 332°
2026-04-24 16:58 34.69659 10.28752 23935 ft 394 kts 332°
2026-04-24 16:58 34.72114 10.27279 24069 ft 395 kts 332°
2026-04-24 16:59 34.74612 10.25779 24092 ft 403 kts 332°
2026-04-24 16:59 34.77135 10.24264 24093 ft 405 kts 332°
2026-04-24 16:59 34.82199 10.21229 24095 ft 406 kts 332°
2026-04-24 17:00 34.84746 10.19704 24097 ft 410 kts 332°
2026-04-24 17:00 34.89957 10.16580 24337 ft 423 kts 332°
2026-04-24 17:00 34.92612 10.14985 24450 ft 428 kts 332°
2026-04-24 17:01 34.97991 10.11742 24826 ft 433 kts 332°
2026-04-24 17:01 35.00696 10.10109 25147 ft 432 kts 332°
2026-04-24 17:02 35.05169 10.07411 25744 ft 430 kts 332°
2026-04-24 17:02 35.08746 10.05256 26242 ft 428 kts 332°
2026-04-24 17:02 35.11407 10.03650 26642 ft 426 kts 332°
2026-04-24 17:02 35.14056 10.02050 27030 ft 424 kts 332°
2026-04-24 17:03 35.19245 9.98800 27783 ft 420 kts 330°
2026-04-24 17:03 35.21805 9.97089 28159 ft 418 kts 329°
2026-04-24 17:03 35.24351 9.95358 28546 ft 417 kts 329°
2026-04-24 17:04 35.26880 9.93633 28943 ft 415 kts 329°
2026-04-24 17:04 35.31920 9.90234 29715 ft 412 kts 329°
2026-04-24 17:04 35.34436 9.88557 30121 ft 411 kts 330°
2026-04-24 17:05 35.36943 9.86894 30488 ft 409 kts 329°
2026-04-24 17:05 35.39441 9.85238 30801 ft 408 kts 329°
2026-04-24 17:05 35.44423 9.81926 31302 ft 408 kts 329°
2026-04-24 17:06 35.46076 9.80821 31457 ft 408 kts 329°
2026-04-24 17:06 35.51066 9.77474 31989 ft 409 kts 329°
2026-04-24 17:06 35.53561 9.75805 32299 ft 408 kts 329°
2026-04-24 17:07 35.56054 9.74137 32578 ft 408 kts 329°
2026-04-24 17:07 35.58551 9.72466 32853 ft 408 kts 329°
2026-04-24 17:07 35.63532 9.69126 33405 ft 407 kts 329°
2026-04-24 17:08 35.68497 9.65781 33963 ft 407 kts 329°
2026-04-24 17:08 35.70985 9.64102 34083 ft 407 kts 329°
2026-04-24 17:08 35.73492 9.62479 34090 ft 407 kts 330°
2026-04-24 17:09 35.83714 9.56551 34087 ft 407 kts 332°
2026-04-24 17:10 35.93954 9.50527 34084 ft 405 kts 332°
2026-04-24 17:12 36.14309 9.38490 34076 ft 407 kts 332°
2026-04-24 18:54 46.09551 6.71752 21202 ft 287 kts 149°
2026-04-24 18:55 46.05812 6.73608 21154 ft 287 kts 168°
2026-04-24 18:55 46.03849 6.74156 21157 ft 287 kts 170°
2026-04-24 18:55 46.01887 6.74651 21151 ft 287 kts 170°
2026-04-24 18:56 45.99905 6.75145 21156 ft 290 kts 170°
2026-04-24 18:56 45.97904 6.75594 21154 ft 291 kts 178°
2026-04-24 18:56 45.95894 6.75271 21163 ft 292 kts 197°
2026-04-24 18:56 45.94073 6.74005 21156 ft 293 kts 216°
2026-04-24 18:57 45.92638 6.71938 21160 ft 294 kts 235°
2026-04-24 18:57 45.91770 6.69325 21156 ft 295 kts 254°
2026-04-24 18:57 45.91565 6.66390 21157 ft 298 kts 274°
2026-04-24 18:57 45.92078 6.63511 21153 ft 301 kts 295°
2026-04-24 18:58 45.93263 6.61036 21150 ft 303 kts 315°
2026-04-24 18:58 45.94983 6.59293 21147 ft 305 kts 336°
2026-04-24 18:58 45.97005 6.58381 21151 ft 306 kts 346°
2026-04-24 18:58 45.99093 6.57736 21145 ft 307 kts 349°
2026-04-24 18:59 46.01200 6.57185 21145 ft 308 kts 350°
2026-04-24 18:59 46.03317 6.56663 21148 ft 309 kts 350°
2026-04-24 18:59 46.05440 6.56156 21142 ft 309 kts 354°
2026-04-24 18:59 46.07562 6.56361 21142 ft 307 kts 17°
2026-04-24 19:00 46.09468 6.57703 21140 ft 305 kts 40°
2026-04-24 19:00 46.10864 6.59958 21149 ft 302 kts 63°
2026-04-24 19:00 46.11558 6.62765 21145 ft 297 kts 85°
2026-04-24 19:00 46.11491 6.65680 21151 ft 293 kts 106°
2026-04-24 19:01 46.10701 6.68346 21145 ft 290 kts 127°
2026-04-24 19:01 46.09309 6.70403 21158 ft 287 kts 148°
2026-04-24 19:01 46.07515 6.71605 21154 ft 285 kts 166°
2026-04-24 19:01 46.05581 6.72271 21155 ft 286 kts 169°
2026-04-24 19:02 46.04263 6.72644 21156 ft 286 kts 170°
2026-04-24 19:02 46.01666 6.73309 21158 ft 286 kts 171°
2026-04-24 19:02 45.99706 6.73802 21157 ft 286 kts 170°
2026-04-24 19:02 45.97727 6.74168 21151 ft 289 kts 182°
2026-04-24 19:03 45.95758 6.73593 21160 ft 291 kts 203°
2026-04-24 19:03 45.94050 6.72029 21157 ft 292 kts 223°
2026-04-24 19:03 45.92843 6.69697 21156 ft 293 kts 244°
2026-04-24 19:03 45.92304 6.66879 21156 ft 296 kts 265°
2026-04-24 19:04 45.92533 6.63941 21156 ft 299 kts 287°
2026-04-24 19:04 45.93512 6.61307 21151 ft 302 kts 309°
2026-04-24 19:04 45.95118 6.59377 21146 ft 304 kts 332°
2026-04-24 19:04 45.97116 6.58443 21151 ft 304 kts 350°
2026-04-24 19:05 45.99216 6.57912 21147 ft 307 kts 349°
2026-04-24 19:05 46.01321 6.57350 21145 ft 308 kts 349°
2026-04-24 19:05 46.03431 6.56772 21146 ft 310 kts 349°
2026-04-24 19:05 46.05567 6.56212 21143 ft 313 kts 354°
2026-04-24 19:06 46.07719 6.56426 21141 ft 312 kts 18°
2026-04-24 19:06 46.09628 6.57792 21142 ft 310 kts 41°
2026-04-24 19:06 46.11029 6.60105 21142 ft 307 kts 64°
2026-04-24 19:06 46.11714 6.62976 21143 ft 302 kts 86°
2026-04-24 19:07 46.11615 6.65962 21145 ft 298 kts 107°
2026-04-24 19:07 46.10785 6.68664 21153 ft 295 kts 128°
2026-04-24 19:07 46.09895 6.70131 21154 ft 293 kts 141°
2026-04-24 19:07 46.07525 6.71946 21155 ft 290 kts 166°
2026-04-24 19:08 46.05555 6.72621 21155 ft 291 kts 169°
2026-04-24 19:08 46.03568 6.73170 21158 ft 291 kts 170°
2026-04-24 19:08 46.01572 6.73673 21157 ft 291 kts 171°
2026-04-24 19:08 45.99576 6.74169 21153 ft 292 kts 170°
2026-04-24 19:09 45.97545 6.74505 21152 ft 295 kts 183°
2026-04-24 19:09 45.95551 6.73874 21160 ft 296 kts 204°
2026-04-24 19:09 45.93837 6.72241 21158 ft 298 kts 224°
2026-04-24 19:09 45.92643 6.69832 21155 ft 298 kts 245°
2026-04-24 19:10 45.92127 6.66946 21159 ft 301 kts 266°
2026-04-24 19:10 45.92386 6.63961 21153 ft 304 kts 288°
2026-04-24 19:10 45.93392 6.61333 21148 ft 307 kts 310°
2026-04-24 19:10 45.95034 6.59389 21146 ft 309 kts 333°
2026-04-24 19:11 45.97064 6.58391 21155 ft 310 kts 346°
2026-04-24 19:11 45.99177 6.57736 21147 ft 312 kts 348°
2026-04-24 19:11 46.01320 6.57169 21145 ft 313 kts 349°
2026-04-24 19:11 46.03472 6.56626 21148 ft 314 kts 349°
2026-04-24 19:12 46.05622 6.56118 21142 ft 314 kts 355°
2026-04-24 19:12 46.07777 6.56418 21142 ft 312 kts 19°
2026-04-24 19:12 46.09690 6.57856 21139 ft 310 kts 41°
2026-04-24 19:12 46.11094 6.60177 20904 ft 306 kts 64°
2026-04-24 19:13 46.11629 6.62030 20739 ft 301 kts 78°
2026-04-24 19:13 46.11693 6.65979 20410 ft 294 kts 107°
2026-04-24 19:13 46.10910 6.68663 20173 ft 289 kts 127°
2026-04-24 19:13 46.09553 6.70747 19936 ft 285 kts 146°
2026-04-24 19:14 46.07797 6.72016 19692 ft 282 kts 165°
2026-04-24 19:14 46.05893 6.72708 19458 ft 282 kts 169°
2026-04-24 19:14 46.03966 6.73252 19243 ft 281 kts 171°
2026-04-24 19:14 46.02040 6.73738 19148 ft 280 kts 171°
2026-04-24 19:15 46.00137 6.74210 19154 ft 282 kts 171°
2026-04-24 19:15 45.98188 6.74666 19157 ft 285 kts 176°
2026-04-24 19:15 45.96221 6.74412 19160 ft 285 kts 197°
2026-04-24 19:15 45.94432 6.73210 19159 ft 286 kts 216°
2026-04-24 19:16 45.92203 6.68607 19158 ft 288 kts 255°
2026-04-24 19:16 45.92044 6.65745 19157 ft 291 kts 276°
2026-04-24 19:16 45.92597 6.62953 19148 ft 293 kts 296°
2026-04-24 19:17 45.93813 6.60609 19151 ft 296 kts 317°
2026-04-24 19:17 45.95550 6.59031 19150 ft 298 kts 339°
2026-04-24 19:17 45.97550 6.58230 19152 ft 299 kts 347°
2026-04-24 19:17 45.99601 6.57622 19147 ft 303 kts 349°
2026-04-24 19:18 46.01692 6.57075 19144 ft 305 kts 349°
2026-04-24 19:18 46.03790 6.56546 19147 ft 306 kts 349°
2026-04-24 19:18 46.05896 6.56092 19140 ft 306 kts 359°
2026-04-24 19:18 46.07980 6.56566 19145 ft 305 kts 22°
2026-04-24 19:19 46.09769 6.58141 19144 ft 302 kts 46°
2026-04-24 19:19 46.10998 6.60560 19145 ft 299 kts 69°
2026-04-24 19:19 46.11495 6.63438 19144 ft 295 kts 91°
2026-04-24 19:19 46.11218 6.66327 19145 ft 291 kts 112°
2026-04-24 19:20 46.10250 6.68802 19154 ft 287 kts 134°
2026-04-24 19:20 46.08714 6.70606 19155 ft 284 kts 154°
2026-04-24 19:20 46.06855 6.71544 19157 ft 284 kts 167°
2026-04-24 19:20 46.04921 6.72156 19157 ft 284 kts 169°
2026-04-24 19:21 46.02979 6.72672 19158 ft 284 kts 171°
2026-04-24 19:21 46.01685 6.72999 19155 ft 284 kts 171°
2026-04-24 19:21 45.99735 6.73485 19157 ft 284 kts 171°
2026-04-24 19:21 45.97768 6.73843 19122 ft 287 kts 182°
2026-04-24 19:22 45.95818 6.73280 18881 ft 287 kts 204°
2026-04-24 19:22 45.94156 6.71733 18648 ft 286 kts 224°
2026-04-24 19:22 45.92992 6.69432 18412 ft 286 kts 245°
2026-04-24 19:22 45.92485 6.66685 18204 ft 287 kts 266°
2026-04-24 19:23 45.92704 6.63841 18137 ft 289 kts 287°
2026-04-24 19:23 45.93635 6.61274 18144 ft 293 kts 309°
2026-04-24 19:23 45.95180 6.59371 18146 ft 295 kts 331°
2026-04-24 19:23 45.97113 6.58379 18149 ft 297 kts 346°
2026-04-24 19:24 45.99140 6.57745 18145 ft 299 kts 348°
2026-04-24 19:24 46.01193 6.57200 18145 ft 300 kts 349°
2026-04-24 19:24 46.03258 6.56682 18148 ft 301 kts 349°
2026-04-24 19:24 46.05319 6.56175 18143 ft 301 kts 352°
2026-04-24 19:25 46.07366 6.56324 18142 ft 300 kts 17°
2026-04-24 19:25 46.09230 6.57618 18145 ft 298 kts 40°
2026-04-24 19:25 46.10586 6.59829 18147 ft 295 kts 63°
2026-04-24 19:25 46.11236 6.62588 18147 ft 291 kts 86°
2026-04-24 19:26 46.11109 6.65469 18149 ft 287 kts 109°
2026-04-24 19:26 46.10251 6.68027 18146 ft 283 kts 130°
2026-04-24 19:26 46.08810 6.69916 18153 ft 280 kts 152°
2026-04-24 19:26 46.07004 6.70935 18156 ft 279 kts 167°
2026-04-24 19:27 46.05104 6.71553 18160 ft 280 kts 169°
2026-04-24 19:27 46.03186 6.72068 18157 ft 280 kts 171°
2026-04-24 19:27 46.01265 6.72548 18157 ft 280 kts 171°
2026-04-24 19:27 45.99346 6.73031 18158 ft 280 kts 170°
2026-04-24 19:28 45.97410 6.73225 18151 ft 279 kts 187°
2026-04-24 19:28 45.95559 6.72419 18156 ft 281 kts 208°
2026-04-24 19:28 45.94030 6.70688 18158 ft 284 kts 230°
2026-04-24 19:28 45.93042 6.68237 18157 ft 287 kts 251°
2026-04-24 19:29 45.93258 6.62557 17702 ft 295 kts 297°
2026-04-24 19:29 45.94507 6.60257 17705 ft 294 kts 319°
2026-04-24 19:29 45.96246 6.58788 17709 ft 296 kts 342°
2026-04-24 19:30 45.98267 6.58047 17712 ft 297 kts 347°
2026-04-24 19:30 46.00300 6.57461 17664 ft 298 kts 349°
2026-04-24 19:30 46.02339 6.56923 17357 ft 297 kts 348°
2026-04-24 19:30 46.04284 6.55997 17053 ft 294 kts 331°
2026-04-24 19:31 46.05914 6.54336 16761 ft 290 kts 314°
2026-04-24 19:31 46.07141 6.52030 16462 ft 286 kts 299°
2026-04-24 19:31 46.08187 6.49651 16170 ft 286 kts 302°
2026-04-24 19:31 46.09291 6.47320 15909 ft 285 kts 303°
2026-04-24 19:32 46.10427 6.44981 15662 ft 284 kts 304°
2026-04-24 19:32 46.11555 6.42653 15409 ft 282 kts 303°
2026-04-24 19:32 46.12671 6.40331 15135 ft 281 kts 303°
2026-04-24 19:32 46.13774 6.38013 14879 ft 280 kts 303°
2026-04-24 19:33 46.14870 6.35699 14609 ft 279 kts 303°
2026-04-24 19:33 46.16013 6.33446 14346 ft 279 kts 310°
2026-04-24 19:33 46.17463 6.31590 14096 ft 278 kts 327°
2026-04-24 19:33 46.19213 6.30453 13845 ft 277 kts 346°
2026-04-24 19:34 46.21121 6.30220 13565 ft 276 kts
2026-04-24 19:34 46.22963 6.30919 13260 ft 274 kts 26°
2026-04-24 19:34 46.24534 6.32435 12964 ft 272 kts 45°
2026-04-24 19:34 46.25861 6.34387 12657 ft 271 kts 46°
2026-04-24 19:35 46.27179 6.36337 12361 ft 271 kts 46°
2026-04-24 19:35 46.28494 6.38280 12067 ft 270 kts 46°
2026-04-24 19:35 46.29810 6.40219 11783 ft 269 kts 46°
2026-04-24 19:35 46.31118 6.42150 11507 ft 267 kts 46°
2026-04-24 19:36 46.32412 6.44067 11233 ft 266 kts 46°
2026-04-24 19:36 46.33684 6.45954 10959 ft 265 kts 45°
2026-04-24 19:36 46.34952 6.47829 10837 ft 256 kts 45°
2026-04-24 19:36 46.36186 6.49644 10713 ft 249 kts 45°
2026-04-24 19:37 46.37379 6.51411 10574 ft 242 kts 45°
2026-04-24 19:37 46.38545 6.53154 10360 ft 240 kts 45°
2026-04-24 19:37 46.39703 6.54895 10120 ft 239 kts 45°
2026-04-24 19:37 46.40856 6.56635 9856 ft 239 kts 45°
2026-04-24 19:38 46.41976 6.58405 9580 ft 238 kts 48°
2026-04-24 19:38 46.43071 6.60201 9331 ft 237 kts 48°
2026-04-24 19:38 46.44157 6.61995 9070 ft 236 kts 48°
2026-04-24 19:38 46.45238 6.63783 8816 ft 235 kts 48°
2026-04-24 19:39 46.46312 6.65557 8574 ft 233 kts 48°
2026-04-24 19:39 46.47381 6.67323 8316 ft 233 kts 48°
2026-04-24 19:39 46.48470 6.69060 8161 ft 232 kts 40°
2026-04-24 19:39 46.49890 6.70054 8139 ft 228 kts
2026-04-24 19:40 46.51433 6.69758 8138 ft 226 kts 332°
2026-04-24 19:40 46.52598 6.68284 8140 ft 224 kts 299°
2026-04-24 19:40 46.53051 6.66150 8140 ft 223 kts 271°
2026-04-24 19:40 46.52756 6.63994 8139 ft 222 kts 243°
2026-04-24 19:41 46.51924 6.62106 8141 ft 223 kts 236°
2026-04-24 19:41 46.51047 6.60241 8135 ft 224 kts 236°
2026-04-24 19:41 46.50167 6.58374 8137 ft 223 kts 236°
2026-04-24 19:41 46.49290 6.56515 8114 ft 222 kts 236°
2026-04-24 19:42 46.48416 6.54663 7883 ft 221 kts 236°
2026-04-24 19:42 46.47550 6.52824 7619 ft 221 kts 236°
2026-04-24 19:42 46.46696 6.51006 7365 ft 220 kts 236°
2026-04-24 19:42 46.45834 6.49169 7106 ft 220 kts 236°
2026-04-24 19:43 46.44985 6.47363 6974 ft 213 kts 236°
2026-04-24 19:43 46.44161 6.45611 6814 ft 210 kts 236°
2026-04-24 19:43 46.43328 6.43837 6450 ft 215 kts 236°
2026-04-24 19:43 46.42471 6.42018 6080 ft 221 kts 235°
2026-04-24 19:44 46.41618 6.40210 5929 ft 212 kts 235°
2026-04-24 19:44 46.40809 6.38496 5767 ft 201 kts 235°
2026-04-24 19:44 46.40023 6.36839 5477 ft 199 kts 235°
2026-04-24 19:44 46.39233 6.35175 5100 ft 201 kts 236°
2026-04-24 19:45 46.38448 6.33519 4897 ft 199 kts 236°
2026-04-24 19:45 46.37669 6.31874 4783 ft 196 kts 236°
2026-04-24 19:45 46.36873 6.30328 4627 ft 188 kts 230°
2026-04-24 19:45 46.36010 6.28931 4416 ft 185 kts 227°
2026-04-24 19:46 46.35119 6.27580 4181 ft 186 kts 226°
2026-04-24 19:46 46.34222 6.26246 3975 ft 184 kts 226°
2026-04-24 19:46 46.33339 6.24940 3744 ft 178 kts 226°
2026-04-24 19:46 46.32482 6.23674 3483 ft 175 kts 226°
2026-04-24 19:47 46.31630 6.22415 3249 ft 174 kts 226°
2026-04-24 19:47 46.30791 6.21178 3010 ft 167 kts 225°
2026-04-24 19:47 46.30007 6.20023 2793 ft 158 kts 225°
2026-04-24 19:47 46.29247 6.18903 2586 ft 155 kts 226°
2026-04-24 19:48 46.28501 6.17803 2391 ft 153 kts 226°
2026-04-24 19:48 46.27763 6.16716 2178 ft 150 kts 226°
2026-04-24 19:48 46.26312 6.14581 1782 ft 148 kts 226°
2026-04-24 19:49 46.24877 6.12474 1382 ft 147 kts 227°
2026-04-24 19:49 46.23880 6.11003 1377 ft 49 kts 225°
2026-04-24 19:50 46.23512 6.10696 1386 ft 0 kts 197°
2026-04-24 19:51 46.23502 6.10694 1386 ft 5 kts 185°
2026-04-24 19:51 46.23481 6.10730 1387 ft 3 kts 95°
2026-04-24 19:52 46.23529 6.10883 1400 ft 4 kts 150°
2026-04-24 19:52 46.23514 6.10899 1398 ft 1 kts 136°
2026-04-24 19:52 46.23499 6.10920 1395 ft 0 kts 134°
2026-04-24 19:52 46.23498 6.10921 1395 ft 0 kts 134°